Temperature
20 19 19 19 19 18 18 18 18 17 17 17 17 17 17 17 17 17 17 17 17 17 17 16 16 16 16 16 16 16 16 16 15 15 14 14 14 14 14 14 13 13 13
20 19 19 19 19 18 18 18 17 17 17 17 17 17 17 17 17 17 17 17 16 16 16 16 16 16 16 16 16 16 16 15 15 15 14 14 13 13 13 13 13 12 12
20 19 19 19 18 18 18 18 17 17 17 17 17 17 17 17 16 16 16 16 16 16 16 16 16 16 16 16 15 15 15 15 15 15 14 13 13 13 13 12 12 12 12
20 19 19 19 18 18 18 17 17 17 17 17 17 17 17 16 16 16 16 16 16 16 16 15 15 15 15 15 15 15 15 15 14 14 14 13 13 12 12 12 11 11 11
20 19 19 19 18 18 17 17 17 17 17 17 16 16 16 16 16 16 16 16 15 15 15 15 15 15 15 15 15 14 14 14 14 14 13 13 12 12 12 11 11 11 10
19 19 19 18 18 17 17 17 17 17 17 16 16 16 16 16 15 15 15 15 15 15 15 15 15 14 14 14 14 14 14 14 13 13 13 12 12 12 11 11 11 10 9
19 19 18 18 18 17 17 17 17 17 16 16 16 16 16 16 15 15 15 15 15 15 15 14 14 14 14 14 14 14 13 13 13 13 13 12 12 12 11 11 10 10 10
19 19 18 18 17 17 17 17 17 16 16 16 16 16 15 15 15 15 15 15 14 14 14 14 14 14 13 13 13 13 13 13 12 12 12 12 11 11 11 11 10 10 9
19 19 18 18 17 17 17 17 16 16 16 16 15 15 15 15 15 14 14 14 14 14 14 13 13 13 13 13 13 12 12 12 12 11 11 11 11 10 10 10 10 9 9
19 18 18 18 17 17 17 16 16 16 15 15 15 15 14 14 14 14 14 14 14 13 13 13 13 12 12 12 12 12 12 12 11 11 11 10 10 10 10 10 10 9 9
19 18 18 17 17 17 16 16 16 15 15 15 14 14 14 14 14 14 13 13 13 13 13 12 12 12 12 12 11 11 11 11 11 10 10 10 10 10 9 9 9 9 9
18 17 17 17 16 16 16 15 15 15 15 14 14 14 14 13 13 13 13 13 13 13 12 12 11 11 11 11 11 11 10 10 10 10 10 9 9 9 9 9 9 9 8
17 17 17 16 16 16 15 15 15 15 14 14 14 13 13 13 13 13 13 12 12 12 12 11 11 11 11 10 10 10 10 10 9 9 9 9 9 9 8 8 8 8 8
17 16 16 16 15 15 15 15 14 14 14 14 13 13 13 13 13 12 12 12 11 11 11 11 10 10 10 10 9 9 9 9 9 9 9 8 8 8 8 8 8 8 8
16 16 15 15 15 15 14 14 14 14 14 13 13 13 13 13 12 12 12 11 11 11 10 10 10 10 9 9 9 8 8 8 8 8 8 8 8 8 8 8 7 7 7
16 16 15 15 14 14 14 14 13 13 13 13 13 12 12 12 12 11 11 11 10 10 10 10 10 9 9 9 8 8 8 8 8 8 8 8 8 7 7 7 7 7 7
16 15 15 14 14 14 13 13 13 13 12 12 12 12 12 11 11 11 10 10 10 10 9 9 9 9 9 8 8 8 8 8 8 7 7 7 7 7 7 7 7 7 7
15 14 14 14 14 13 13 13 13 12 12 12 11 11 11 11 11 10 10 10 9 9 9 9 9 8 8 8 8 8 7 7 7 7 7 7 7 7 7 7 7 7 7
14 14 14 13 13 13 12 12 12 12 12 11 11 11 10 10 10 10 9 9 9 9 9 9 8 8 8 8 8 7 7 7 7 7 7 7 7 7 7 7 7 7 7
13 13 13 13 13 12 12 12 11 11 11 11 11 10 10 10 10 9 9 9 9 9 9 8 8 8 8 7 7 7 7 7 7 7 7 7 7 7 7 7 7 7 6
13 13 12 12 12 12 11 11 11 11 11 10 10 10 10 10 10 9 9 9 9 8 8 8 8 8 7 7 7 7 7 7 7 7 7 7 7 7 6 6 6 6 6
12 12 12 11 11 11 11 11 10 10 10 10 10 10 9 9 9 9 9 9 8 8 8 8 8 7 7 7 7 7 7 7 7 7 7 6 6 6 6 6 6 6 6
12 11 11 11 11 11 11 10 10 10 10 10 9 9 9 9 9 9 8 8 8 8 8 8 8 7 7 7 7 7 7 7 7 6 6 6 6 6 6 6 6 6 6
11 11 11 11 11 11 10 10 10 10 10 9 9 9 9 9 9 8 8 8 8 8 8 8 7 7 7 7 7 7 7 6 6 6 6 6 6 6 6 6 6 6 6
11 11 11 11 10 10 10 10 10 9 9 9 9 9 9 9 8 8 8 8 8 8 8 7 7 7 7 7 7 7 6 6 6 6 6 6 6 6 6 6 6 6 6
11 11 10 10 10 10 10 10 10 9 9 9 9 9 8 8 8 8 8 8 8 8 7 7 7 7 7 7 7 7 6 6 6 6 6 6 6 6 6 6 5 5 5
Wind_Speed
7 6 5 5 5 4 4 4 4 3 3 3 3 3 2 2 2 3 2 2 2 2 2 2 2 2 2 2 3 3 3 4 3 1 1 2 3 4 7 8 8 8 9
7 6 6 5 5 5 4 3 3 3 2 2 2 2 2 1 2 2 2 1 1 1 1 1 2 1 2 1 2 3 3 4 5 4 2 2 3 5 6 7 7 7 8
7 7 6 5 5 5 4 4 4 3 2 2 2 2 1 1 2 2 2 2 2 1 1 2 2 2 1 1 2 2 3 3 4 6 4 2 2 4 5 6 6 6 7
8 7 6 5 5 5 4 4 4 4 3 3 2 2 2 2 2 1 2 2 2 1 0 1 1 2 2 2 2 3 4 4 5 6 5 3 3 3 4 5 4 2 3
8 7 6 5 5 5 5 4 4 4 4 3 4 3 3 2 2 2 2 3 3 2 2 2 2 2 3 2 3 3 5 5 5 5 5 4 4 4 4 3 4 3 2
8 7 6 6 6 5 5 5 5 5 4 5 4 4 4 2 3 4 4 3 3 3 3 3 3 4 5 6 5 5 6 6 6 5 4 5 5 4 4 5 4 3 2
8 7 7 6 6 5 5 5 5 4 5 5 4 4 4 3 4 5 6 5 5 4 3 3 4 5 6 6 8 8 6 5 6 6 6 5 5 6 6 5 4 3 2
8 7 7 6 6 5 6 6 5 4 4 4 4 4 4 3 5 6 7 6 6 5 4 4 4 4 4 6 7 7 6 5 4 4 4 4 5 6 7 6 6 4 3
8 7 7 7 7 6 6 5 5 5 4 3 3 4 4 3 5 6 7 5 5 5 4 4 4 4 5 7 8 7 6 5 8 9 9 8 8 10 10 6 5 5 2
8 7 7 7 7 7 6 5 4 5 4 4 4 3 3 3 3 5 6 5 5 4 4 4 5 5 6 7 6 7 6 4 5 6 7 8 8 8 8 6 6 5 3
7 7 7 7 7 7 6 4 5 5 5 4 4 3 3 3 3 4 5 4 5 4 3 3 2 5 6 6 6 5 6 5 5 6 5 5 5 4 4 4 5 5 4
8 7 7 7 7 6 7 5 5 6 6 4 4 3 2 2 3 4 5 5 5 5 4 2 2 5 7 6 5 6 8 7 5 5 4 3 3 2 2 4 5 5 4
8 8 7 7 6 6 6 6 5 5 4 4 4 3 2 2 3 6 6 7 7 5 4 5 6 7 6 5 5 6 5 4 4 4 3 1 1 1 2 3 4 6 6
9 8 7 7 6 5 4 4 5 4 4 4 4 4 3 2 2 2 3 4 6 5 4 5 6 6 5 4 3 3 2 3 3 3 2 1 1 2 2 2 2 2 2
8 7 7 6 7 6 4 3 3 2 3 5 5 5 5 4 5 6 5 4 4 4 5 3 2 2 2 2 2 2 2 2 2 2 3 2 2 2 1 1 2 2 2
7 7 6 6 6 6 6 4 6 4 3 2 4 5 4 5 9 9 7 7 8 8 5 3 2 2 2 2 2 1 1 1 2 3 3 3 3 2 2 1 2 2 2
7 7 5 6 6 6 6 6 4 3 6 6 4 5 6 8 9 9 8 8 8 8 4 3 3 3 2 2 2 2 2 2 2 3 3 3 3 2 2 2 2 2 2
6 6 6 5 5 5 5 5 5 5 3 1 3 3 6 8 8 8 8 7 4 2 2 3 3 3 3 3 3 2 2 2 2 2 2 3 3 3 2 2 3 3 3
5 5 5 5 5 5 5 4 4 5 4 3 2 2 3 5 5 6 7 3 4 3 3 3 3 3 3 3 3 3 3 3 3 3 2 3 3 3 3 3 3 4 3
4 7 6 5 4 4 4 5 4 4 4 4 4 3 3 3 3 3 3 2 3 3 4 4 4 4 4 4 3 3 3 3 3 3 3 3 3 3 3 3 3 3 3
4 5 7 5 4 5 5 5 5 5 5 4 4 5 7 5 5 5 4 4 4 4 4 4 4 4 4 4 4 4 4 4 4 4 4 3 3 3 3 3 3 3 3
4 4 4 4 4 4 4 4 4 5 5 5 3 4 7 4 4 4 4 4 4 4 4 4 4 4 5 5 5 5 5 4 4 4 4 4 3 3 2 3 3 3 3
4 5 4 4 4 5 5 4 4 4 4 4 4 4 4 4 4 4 5 5 4 4 5 5 4 4 6 8 8 7 6 6 6 6 5 4 3 3 3 3 4 3 3
4 5 5 4 4 4 4 4 4 4 5 5 4 4 5 5 5 5 5 4 4 5 6 7 7 7 8 8 9 10 10 11 10 9 8 5 5 4 4 4 4 4 4
4 5 5 5 5 5 5 4 4 5 5 4 4 4 4 5 5 5 5 5 5 5 7 8 8 9 10 11 11 11 12 12 11 10 10 6 5 5 4 4 4 4 4
4 4 4 4 4 5 5 5 5 5 5 4 4 4 5 5 5 5 4 5 5 5 5 7 9 10 10 12 13 13 13 13 13 12 11 7 5 5 5 4 5 4 5
Wind_Direction
176 173 168 169 168 163 169 179 179 180 174 177 186 186 187 201 198 189 204 196 193 221 242 207 221 204 204 205 190 189 182 167 178 189 138 135 130 130 118 116 118 118 121
164 157 161 159 155 159 167 171 165 160 161 169 167 161 173 186 182 177 187 186 174 211 236 210 231 198 189 201 183 183 182 169 160 163 156 146 135 139 127 120 116 115 116
150 149 150 153 154 161 165 156 150 144 137 128 130 136 122 107 121 135 145 147 149 185 197 192 207 169 187 194 175 166 163 150 140 151 155 134 122 132 122 114 109 107 113
147 148 153 162 161 159 155 148 145 139 134 122 107 106 100 96 105 120 130 133 122 117 119 154 165 166 187 175 158 152 143 137 134 142 143 138 129 127 129 130 120 100 110
148 152 159 154 145 145 143 138 128 121 120 111 101 89 78 78 83 108 119 123 115 94 68 63 76 108 134 151 155 154 146 142 139 141 142 140 144 150 154 143 136 123 80
152 155 150 138 135 135 134 128 119 113 104 97 96 95 82 69 73 104 109 105 101 97 84 66 64 67 80 87 103 122 137 146 153 149 151 159 164 154 141 143 143 141 164
149 147 144 139 138 142 138 123 121 120 113 105 100 100 96 73 82 90 95 100 90 82 77 72 73 68 74 83 79 79 87 118 141 152 157 166 166 167 154 153 156 146 164
144 145 144 140 139 134 129 128 123 118 117 115 111 107 98 77 78 85 90 86 81 72 69 77 89 75 78 95 92 78 65 59 85 115 145 156 158 162 164 160 152 121 84
151 153 152 146 144 140 138 140 133 124 116 112 110 107 102 81 79 95 101 96 88 73 65 66 84 87 91 101 101 95 80 62 72 92 101 113 130 143 143 129 130 130 115
159 156 152 149 148 149 147 141 135 129 129 126 114 112 114 106 99 111 111 112 105 89 67 57 67 91 101 105 112 115 109 98 93 87 82 82 94 116 137 149 155 150 137
146 142 144 145 144 144 141 138 138 136 129 124 118 106 98 98 110 116 124 124 131 120 102 75 62 94 103 103 106 115 126 120 102 98 89 75 71 76 90 128 151 151 150
139 137 138 141 145 145 142 142 140 140 136 133 126 106 78 71 87 106 117 121 128 127 127 116 100 105 105 103 100 111 111 103 98 95 94 91 89 83 78 97 111 118 131
136 137 137 135 132 141 146 147 141 140 144 146 145 146 131 91 84 100 112 121 123 119 126 125 112 102 96 94 100 106 101 100 106 110 117 130 145 129 100 85 79 84 81
139 141 141 136 131 126 129 139 147 155 160 161 161 161 154 140 135 122 115 117 114 109 112 111 100 90 81 80 84 81 94 129 139 150 156 143 106 100 105 111 111 92 72
142 143 141 137 135 123 109 97 133 148 180 179 181 175 172 182 194 172 156 150 149 142 122 98 89 91 84 72 66 67 84 110 134 146 141 133 124 124 135 129 125 114 119
145 148 148 144 140 138 133 101 56 71 79 126 165 162 171 167 159 160 158 150 143 139 123 132 148 153 158 154 138 117 104 139 160 150 143 151 160 170 167 133 125 137 152
147 151 153 153 154 156 155 152 140 69 62 66 103 147 158 158 159 161 158 148 142 137 128 154 168 171 175 174 167 161 173 180 162 149 152 162 162 164 160 158 157 158 174
142 145 149 156 157 161 163 163 160 157 143 75 52 107 146 155 157 158 150 132 134 150 164 171 179 178 178 179 179 175 171 159 152 155 163 172 172 169 172 176 177 177 178
142 148 152 153 154 158 155 152 149 151 148 143 118 79 119 132 134 147 148 149 169 185 183 177 183 187 188 189 188 184 181 179 175 169 172 176 177 171 184 196 195 190 176
151 150 151 153 155 157 157 155 156 157 156 158 166 171 154 133 146 167 178 180 182 188 186 187 192 198 196 191 189 189 190 191 185 182 187 187 183 174 184 192 193 189 191
158 159 153 149 158 165 165 166 167 166 168 170 181 182 170 172 182 188 193 201 202 201 198 197 200 203 199 191 188 197 199 203 200 192 189 189 184 185 195 194 196 193 186
158 159 157 160 161 161 164 166 166 168 170 170 172 176 179 183 192 197 203 211 210 207 203 199 206 209 203 197 194 198 201 200 197 190 188 187 186 192 195 197 200 195 191
158 156 153 155 157 156 154 159 163 165 168 174 179 181 190 203 209 208 213 217 213 212 211 204 202 209 209 206 202 194 195 201 200 191 184 187 194 201 197 200 201 193 196
158 161 160 160 158 157 160 164 167 169 171 174 181 192 203 213 216 217 217 216 217 219 213 206 202 205 208 210 211 206 203 204 200 195 188 191 200 209 206 205 208 206 207
157 160 162 164 168 170 171 174 176 177 181 186 192 200 210 213 218 224 224 219 215 213 213 213 215 215 214 210 209 211 213 211 207 204 198 194 200 202 201 204 207 209 212
151 158 164 168 172 174 175 179 186 190 193 198 202 206 209 212 219 225 224 221 218 217 216 216 217 217 217 216 218 219 219 218 217 214 205 198 199 208 206 209 212 214 219
Height
1533 1535 1536 1537 1538 1538 1539 1539 1540 1540 1541 1541 1542 1542 1543 1543 1543 1543 1543 1543 1543 1543 1544 1544 1544 1545 1545 1545 1546 1546 1547 1548 1547 1548 1550 1551 1552 1552 1553 1554 1555 1555 1556
1532 1534 1535 1535 1536 1536 1537 1537 1538 1538 1539 1539 1540 1540 1540 1540 1540 1540 1540 1540 1540 1541 1541 1541 1541 1541 1541 1541 1542 1542 1543 1543 1544 1544 1546 1547 1549 1550 1550 1551 1552 1553 1554
1532 1533 1533 1534 1534 1535 1535 1536 1536 1537 1537 1538 1538 1538 1538 1538 1538 1538 1538 1538 1538 1538 1538 1538 1538 1538 1538 1538 1538 1538 1539 1540 1541 1541 1542 1544 1546 1547 1548 1549 1550 1551 1552
1530 1531 1532 1532 1533 1533 1533 1534 1535 1535 1536 1536 1537 1537 1536 1536 1536 1536 1536 1536 1536 1536 1536 1536 1536 1536 1535 1535 1536 1536 1536 1536 1537 1538 1539 1541 1542 1544 1545 1546 1547 1548 1549
1529 1530 1531 1531 1532 1532 1532 1533 1534 1534 1535 1535 1535 1535 1535 1535 1535 1535 1535 1534 1534 1534 1534 1534 1534 1533 1533 1533 1533 1533 1533 1533 1534 1535 1536 1537 1539 1540 1542 1543 1544 1546 1547
1528 1529 1530 1530 1531 1531 1532 1532 1533 1533 1534 1534 1534 1534 1534 1534 1534 1534 1533 1533 1533 1533 1532 1532 1532 1531 1531 1531 1531 1531 1532 1532 1532 1532 1533 1535 1536 1538 1539 1541 1542 1543 1544
1527 1528 1529 1529 1530 1531 1532 1532 1533 1533 1533 1533 1533 1533 1533 1533 1533 1533 1532 1532 1531 1531 1531 1531 1530 1530 1530 1530 1530 1530 1530 1531 1531 1532 1532 1533 1535 1536 1537 1539 1541 1542 1543
1525 1527 1528 1529 1529 1530 1531 1531 1532 1532 1532 1532 1532 1532 1532 1532 1532 1532 1532 1531 1531 1531 1531 1531 1530 1530 1529 1529 1529 1529 1529 1530 1530 1531 1532 1532 1533 1535 1536 1538 1539 1541 1542
1524 1525 1526 1527 1528 1529 1529 1530 1531 1531 1531 1531 1531 1531 1531 1531 1531 1531 1531 1530 1530 1530 1530 1530 1530 1529 1529 1529 1529 1528 1529 1529 1530 1530 1531 1532 1533 1534 1536 1537 1538 1539 1540
1521 1523 1524 1525 1527 1527 1528 1529 1529 1530 1530 1530 1530 1531 1530 1530 1530 1530 1530 1530 1529 1529 1529 1529 1529 1529 1529 1529 1529 1528 1528 1529 1530 1530 1531 1532 1533 1534 1535 1537 1538 1538 1539
1520 1521 1522 1524 1525 1526 1527 1527 1528 1529 1529 1529 1530 1530 1530 1530 1530 1530 1530 1529 1529 1529 1528 1528 1529 1529 1529 1529 1529 1529 1529 1529 1530 1530 1531 1532 1533 1534 1535 1536 1537 1538 1539
1518 1519 1520 1522 1523 1524 1525 1526 1526 1527 1528 1528 1528 1528 1529 1529 1529 1529 1529 1529 1528 1528 1528 1528 1528 1529 1529 1529 1529 1529 1529 1530 1530 1531 1531 1532 1533 1534 1535 1536 1537 1538 1539
1516 1517 1518 1520 1521 1522 1523 1524 1524 1525 1526 1526 1527 1527 1527 1528 1528 1528 1528 1528 1527 1528 1528 1528 1528 1529 1529 1529 1529 1530 1530 1530 1531 1531 1532 1532 1533 1534 1535 1536 1536 1537 1538
1513 1515 1516 1517 1519 1520 1521 1522 1522 1523 1524 1524 1525 1525 1525 1526 1526 1526 1526 1526 1527 1527 1527 1527 1528 1528 1529 1529 1529 1530 1530 1531 1532 1532 1533 1533 1534 1535 1535 1536 1536 1537 1538
1512 1513 1514 1515 1516 1518 1519 1520 1520 1521 1522 1522 1523 1523 1523 1524 1524 1525 1525 1525 1526 1526 1526 1527 1527 1527 1528 1528 1529 1530 1530 1531 1532 1532 1533 1533 1534 1535 1535 1536 1536 1537 1537
1509 1511 1512 1513 1514 1516 1516 1517 1518 1519 1519 1520 1520 1521 1521 1522 1523 1523 1524 1524 1525 1525 1525 1525 1525 1526 1527 1527 1528 1529 1530 1531 1531 1532 1533 1533 1534 1535 1535 1536 1536 1537 1537
1507 1508 1510 1511 1512 1513 1514 1514 1515 1516 1517 1517 1518 1518 1519 1520 1521 1521 1522 1523 1523 1523 1524 1524 1524 1525 1526 1527 1528 1528 1529 1530 1531 1532 1532 1533 1534 1534 1535 1536 1536 1537 1537
1505 1506 1507 1508 1509 1510 1511 1512 1513 1513 1514 1514 1516 1516 1517 1518 1518 1519 1520 1521 1521 1521 1522 1522 1523 1524 1524 1526 1526 1527 1528 1529 1530 1531 1532 1532 1533 1534 1534 1535 1535 1536 1536
1503 1504 1505 1506 1507 1508 1509 1509 1510 1511 1512 1512 1513 1514 1515 1515 1516 1517 1517 1518 1518 1519 1520 1520 1521 1522 1523 1524 1525 1526 1527 1528 1529 1530 1530 1531 1532 1533 1533 1534 1534 1535 1535
1501 1502 1503 1503 1504 1505 1506 1507 1508 1509 1509 1510 1511 1512 1512 1513 1513 1514 1515 1515 1516 1517 1518 1518 1519 1520 1521 1522 1523 1524 1525 1526 1527 1528 1529 1529 1530 1531 1532 1532 1533 1533 1533
1499 1500 1501 1501 1502 1503 1504 1504 1505 1506 1507 1508 1509 1510 1510 1511 1511 1512 1512 1513 1514 1515 1516 1516 1517 1518 1519 1520 1521 1522 1523 1524 1525 1526 1526 1527 1528 1529 1529 1530 1530 1531 1531
1497 1498 1499 1499 1500 1501 1502 1503 1503 1504 1505 1506 1507 1508 1508 1509 1510 1510 1511 1511 1512 1513 1514 1514 1515 1516 1517 1518 1518 1519 1520 1521 1522 1523 1524 1524 1525 1526 1527 1527 1528 1528 1529
1495 1496 1497 1498 1499 1500 1500 1501 1502 1502 1503 1504 1505 1506 1506 1507 1507 1508 1508 1509 1510 1511 1511 1512 1513 1513 1514 1515 1516 1517 1517 1518 1519 1520 1521 1521 1522 1523 1524 1524 1525 1525 1526
1494 1495 1496 1497 1498 1498 1499 1499 1500 1501 1501 1502 1503 1504 1504 1505 1505 1506 1506 1507 1507 1508 1509 1510 1510 1511 1512 1512 1513 1514 1514 1515 1516 1517 1517 1518 1519 1520 1520 1521 1521 1522 1522
1493 1494 1495 1495 1496 1497 1497 1498 1499 1499 1500 1500 1501 1502 1502 1503 1503 1504 1505 1505 1505 1506 1506 1507 1508 1508 1509 1509 1510 1511 1511 1512 1513 1513 1514 1514 1515 1516 1516 1517 1517 1518 1518
1491 1492 1493 1494 1495 1495 1496 1497 1497 1498 1498 1499 1499 1500 1500 1501 1501 1502 1502 1502 1503 1503 1503 1504 1504 1505 1506 1506 1507 1507 1508 1508 1509 1509 1510 1510 1511 1511 1512 1513 1513 1514 1514